Weather History for Greenville, ME

Change the Weather History Date:

Sunday, October 7, 2012

  Actual Average (KMLT) Record (KMLT)
Temperature  
Mean Temperature 45 °F 48 °F  
Max Temperature 48 °F 58 °F 79 °F (1946)
Min Temperature 42 °F 39 °F 20 °F (1965)
Degree Days  
Heating Degree Days 20 17  
Month to date heating degree days 108  
Since 1 July heating degree days 436  
Cooling Degree Days 0 0  
Month to date cooling degree days 0  
Year to date cooling degree days 268  
Moisture  
Dew Point 36 °F    
Average Humidity 70    
Maximum Humidity 92    
Minimum Humidity 56    
Precipitation  
Precipitation 0.00 in 0.15 in 1.73 in (1991)
Month to date precipitation 0.99  
Year to date precipitation 31.64  
Sea Level Pressure  
Sea Level Pressure 29.97 in    
Wind  
Wind Speed 4 mph (NNW)    
Max Wind Speed 8 mph    
Max Gust Speed -    
T = Trace of Precipitation, MM = Missing Value Source: NWS Daily Summary

Daily Weather History Graph

Daily Weather History Graph

Search for Another Location

Airport:

Trip Planner

Search our weather history database for the weather conditions in past years. The results will help you decide how hot, cold, wet, or windy it might be!

Date:

Astronomy

Oct. 07, 2012 Rise Set
Actual Time 6:44 AM EDT 6:06 PM EDT
Civil Twilight 6:15 AM EDT 6:36 PM EDT
Nautical Twilight 5:40 AM EDT 7:10 PM EDT
Astronomical Twilight 5:06 AM EDT 7:44 PM EDT
Moon 11:03 PM EDT (10/7) 1:31 PM EDT (10/7)
Length of Visible Light 12h 20m
Length of Day
11h 21m
Waning Gibbous, 56% of the Moon is Illuminated
Oct 7
Waning Gibbous
Oct 8
Last Quarter
Oct 15
New
Oct 21
First Quarter
Oct 29
Full

Hourly Weather History & Observations

Time (EDT) Temp. Windchill Dew Point Humidity Pressure Visibility Wind Dir Wind Speed Gust Speed Precip Events Conditions
12:56 AM 45.0 °F 41.8 °F 37.9 °F 76% 29.82 in - Variable 5.8 mph - N/A   Unknown
1:56 AM 44.1 °F 41.5 °F 37.0 °F 76% 29.84 in - Variable 4.6 mph - N/A   Unknown
2:56 AM 44.1 °F 40.1 °F 37.0 °F 76% 29.85 in - Variable 6.9 mph - N/A   Unknown
3:56 AM 43.0 °F 40.3 °F 36.0 °F 76% 29.88 in - Variable 4.6 mph - N/A   Unknown
4:56 AM 42.1 °F 39.2 °F 35.1 °F 76% 29.90 in - Variable 4.6 mph - N/A   Unknown
5:56 AM 42.1 °F - 34.0 °F 73% 29.92 in - Calm Calm - N/A   Unknown
6:56 AM 43.0 °F 39.5 °F 34.0 °F 71% 29.95 in - Variable 5.8 mph - N/A   Unknown
7:56 AM 44.1 °F 41.5 °F 35.1 °F 71% 29.97 in - Variable 4.6 mph - N/A   Unknown
8:56 AM 45.0 °F 41.2 °F 35.1 °F 68% 29.98 in - Variable 6.9 mph - N/A   Unknown
9:56 AM 46.9 °F - 34.0 °F 61% 30.00 in - Variable 4.6 mph - N/A   Unknown
10:56 AM 46.9 °F - 34.0 °F 61% 30.00 in - Variable 5.8 mph - N/A   Unknown
11:56 AM 46.9 °F - 33.1 °F 59% 30.01 in - Calm Calm - N/A   Unknown
12:56 PM 48.0 °F - 34.0 °F 58% 30.00 in - Variable 3.5 mph - N/A   Unknown
1:56 PM 48.0 °F - 33.1 °F 56% 30.01 in - Calm Calm - N/A   Unknown
2:56 PM 48.9 °F - 35.1 °F 59% 30.01 in - Variable 3.5 mph - N/A   Unknown
3:56 PM 48.9 °F - 34.0 °F 56% 30.00 in - Variable 3.5 mph - N/A   Unknown
4:56 PM 48.0 °F - 34.0 °F 58% 30.00 in - Calm Calm - N/A   Unknown
5:56 PM 46.9 °F - 37.0 °F 68% 30.01 in - Calm Calm - N/A   Unknown
6:56 PM 46.0 °F - 37.9 °F 73% 30.02 in - Calm Calm - N/A   Unknown
7:56 PM 45.0 °F 40.6 °F 37.0 °F 74% 30.01 in - NNW 8.1 mph - N/A   Unknown
8:56 PM 43.0 °F 38.8 °F 37.0 °F 80% 30.01 in - NNW 6.9 mph - N/A   Unknown
9:56 PM 43.0 °F 40.3 °F 37.0 °F 80% 30.01 in - North 4.6 mph - N/A   Unknown
10:56 PM 43.0 °F 40.3 °F 37.9 °F 82% 30.02 in - North 4.6 mph - N/A   Unknown
11:56 PM 42.1 °F - 39.9 °F 92% 30.02 in - Calm Calm - N/A   Unknown